Regional Weather Roundup
Issued by NWS

Home | Current Version | Previous Version | Text Only | Print | Product List | Glossary Off
Versions: 1 2 3 4 5 6 7 8 9 10 11 12 13 14 15 16 17 18 19 20 21 22 23 24 25 26 27 28 29 30 31 32 33 34 35 36 37 38 39 40 41 42 43 44 45 46 47 48 49 50

000
ASUS45 KCYS 061310
RWRWY

WYOMING REGIONAL WEATHER ROUNDUP
NATIONAL WEATHER SERVICE CHEYENNE WY
700 AM MDT WED MAY 06 2015

NOTE:  "FAIR" INDICATES FEW OR NO CLOUDS BELOW 12,000 FEET
WITH NO SIGNIFICANT WEATHER AND/OR OBSTRUCTIONS TO VISIBILITY.

WYZ001-061400-
YELLOWSTONE NATIONAL PARK

CITY           SKY/WX    TMP DP  RH WIND       PRES   REMARKS
LK YELLOWSTONE   N/A     35  32  88 CALM      29.90R
W YELLOWSTONE  NOT AVBL

$$
WYZ002>013-054>058-071-098>099-061400-
NORTHERN WYOMING

CITY           SKY/WX    TMP DP  RH WIND       PRES   REMARKS
JACKSON        MOCLDY    36  36 100 CALM      29.85R
CODY           CLOUDY    48  46  93 N7        29.80R
GREYBULL       CLOUDY    54  49  83 N12       29.72R
WORLAND        CLOUDY    53  48  83 W6        29.74R
SHERIDAN       CLOUDY    52  46  80 NW21      29.76R
BUFFALO        CLOUDY    51  44  77 NW24G31   29.75R
GILLETTE       CLOUDY    53  48  83 SW8       29.70R
HULETT         CLOUDY    54  46  76 CALM      29.73S
NEWCASTLE      DRIZZLE   50  50 100 SE3       29.73S

$$
WYZ014>020-022>026-101>103-061400-
CENTRAL WYOMING

CITY           SKY/WX    TMP DP  RH WIND       PRES   REMARKS
BIG PINEY      CLOUDY    43  33  68 N8        29.83R
PINEDALE       FAIR      39  36  87 W12       29.82S WCI  32
DUBOIS         FAIR      45  32  61 W16       29.81S
LANDER         LGT RAIN  49  47  93 NE5       29.75R
RIVERTON       LGT RAIN  51  47  86 N3        29.77R
CASPER         CLOUDY    47  45  93 CALM      29.74R
DOUGLAS        CLOUDY    50  49  96 CALM      29.73R

$$
WYZ021-027>030-104>119-061400-
SOUTHERN WYOMING

CITY           SKY/WX    TMP DP  RH WIND       PRES   REMARKS
EVANSTON       CLOUDY    42  41  96 SW9       29.87S
KEMMERER       CLOUDY    41  41 100 W14       29.85S
FORT BRIDGER   CLOUDY    46  45  93 W13       29.88R
ROCK SPRINGS   CLOUDY    46  41  82 W15       29.81S
DIXON          CLOUDY    49  45  87 SW3       29.83R
RAWLINS        CLOUDY    46  41  82 W10       29.78S
SARATOGA       CLOUDY    45  43  93 CALM      29.80S
LARAMIE        CLOUDY    42  41  96 CALM      29.77R
CHEYENNE       RAIN      47  45  93 N7        29.72R FOG
TORRINGTON     RAIN      52  51  97 N6        29.68S FOG
PINE BLUFFS    DRIZZLE   48  48 100 NE3       29.69S

$$


USA.gov is the U.S. government's official web portal to all federal, state and local government web resources and services.